This is the latest recevied weather packets stored in our database for station/object W1RCP. If no packets are shown the sender has not sent any weather packets the latest 10 day(s).
| Time | Temp. | Humidity | Pressure | Rain* | Wind** | Luminosity | Snow |
|---|---|---|---|---|---|---|---|
| 1778000472 | 26.67° C | 45% | 1027.4 hPa | 0 mm | - | 901 W/m² | - |
| 1778000166 | 26.67° C | 43% | 1027.3 hPa | 0 mm | - | 887 W/m² | - |
| 1777999863 | 26.67° C | 42% | 1027.3 hPa | 0 mm | - | 813 W/m² | - |
| 1777999558 | 26.67° C | 44% | 1027.3 hPa | 0 mm | - | 884 W/m² | - |
| 1777999256 | 26.11° C | 45% | 1027.5 hPa | 0 mm | - | 836 W/m² | - |
| 1777998954 | 26.67° C | 44% | 1027.3 hPa | 0 mm | - | 820 W/m² | - |
| 1777998651 | 26.11° C | 43% | 1027.6 hPa | 0 mm | - | 863 W/m² | - |
| 1777998349 | 26.67° C | 44% | 1027.7 hPa | 0 mm | - | 862 W/m² | - |
| 1777998047 | 26.67° C | 41% | 1027.7 hPa | 0 mm | - | 906 W/m² | - |
| 1777997743 | 26.67° C | 45% | 1027.7 hPa | 0 mm | - | 837 W/m² | - |
| 1777997441 | 26.11° C | 48% | 1027.6 hPa | 0 mm | - | 926 W/m² | - |
| 1777997139 | 25.56° C | 47% | 1027.7 hPa | 0 mm | - | 898 W/m² | - |
| 1777996836 | 25.56° C | 50% | 1027.7 hPa | 0 mm | - | 867 W/m² | - |
| 1777996532 | 25.56° C | 51% | 1027.7 hPa | 0 mm | - | 921 W/m² | - |
| 1777996228 | 25.56° C | 51% | 1028 hPa | 0 mm | - | 860 W/m² | - |
| 1777995925 | 25° C | 52% | 1028 hPa | 0 mm | - | 716 W/m² | - |
| 1777995621 | 25° C | 53% | 1027.9 hPa | 0 mm | - | 799 W/m² | - |
| 1777995319 | 25.56° C | 52% | 1028 hPa | 0 mm | - | 784 W/m² | - |
| 1777995015 | 25° C | 55% | 1027.8 hPa | 0 mm | - | 770 W/m² | - |
| 1777994712 | 24.44° C | 56% | 1027.9 hPa | 0 mm | - | 763 W/m² | - |
| 1777994408 | 23.89° C | 57% | 1028.2 hPa | 0 mm | - | 752 W/m² | - |
| 1777994103 | 23.89° C | 57% | 1028.2 hPa | 0 mm | - | 719 W/m² | - |
| 1777993801 | 23.89° C | 56% | 1028.4 hPa | 0 mm | - | 686 W/m² | - |
| 1777993497 | 23.89° C | 57% | 1028.4 hPa | 0 mm | - | 694 W/m² | - |
| 1777993197 | 23.89° C | 57% | 1028.1 hPa | 0 mm | - | 693 W/m² | - |
* Rain latest hour (hover to see other rain measurements)
** Current wind speed in m/s (hover to see current wind gust speed)